www.pogodaiklimat.ru

Погода и климат >> Архив погоды >> Россия >> Сахалинская область >> Москальво


АРХИВ ПОГОДЫ в Москальво

Время (UTC), дата Ветер
(напр.,м/с)
 
Видим.   Явления Облачность Т
(С)
Тd
(С)
f
(%)
Тe
(С)
Тes
(С)
Комфортность P
(гПа)
Po
(гПа)
Тmin
(С)
Tmax
(С)
R
(мм)
R24
(мм)
S
(см)
06 17.02 СЗ 3-3
{5}
20 км 3/0
[Ci fib]
-17.1 -19.3 83 -24 -23 996.0 995.2
09 17.02 СЗ 4-5
{6}
20 км 9/0
[Cs]
-22.6 -25.1 80 -32 -32 опасность
обморожения
999.0 998.2 -13.8
12 17.02 С 1-2
{5}
20 км 6/0
[Ci fib]
-25.5 -28.4 77 -29 -29 1000.9 1000.0
15 17.02 штиль 0
{2}
20 км 3/0
[Ci fib]
-27.8 -30.9 75 -28 -28 1001.8 1000.9
18 17.02 З 2-3
{3}
20 км ясно -26.5 -29.5 76 -33 -33 опасность
обморожения
1003.1 1002.3
21 17.02 З 2-2
{3}
20 км 3/0
[Ac lent]
-29.3 -32.4 74 -37 -37 опасность
обморожения
1004.9 1004.0 -30.0 114
00 18.02 Ю 1-2
{3}
20 км 9/0
[Cs]
-26.0 -29.0 76 -30 -28 1005.9 1005.0
03 18.02 СЗ 1-2
{3}
20 км 9/0
[Cs]
-18.3 -20.6 82 -21 -17 1006.9 1006.0
06 18.02 штиль 0
{4}
20 км 9/0
[Cs]
-15.8 -17.8 85 -16 -15 1008.0 1007.2
09 18.02 ЮЗ 2-2
{3}
20 км 1/0
[Ac lent]
-20.2 -22.3 83 -26 -26 1009.4 1008.6 -14.9
12 18.02 ЮЗ 3-4
{4}
20 км ясно -25.2 -27.9 78 -34 -34 опасность
обморожения
1010.5 1009.6
15 18.02 Ю 3-3
{4}
20 км ясно -27.6 -31.0 73 -37 -37 опасность
обморожения
1011.0 1010.2
18 18.02 Ю 2-3
{4}
20 км ясно -24.6 -27.4 77 -31 -31 опасность
обморожения
1011.8 1010.9
21 18.02 ЮЗ 2-3
{5}
20 км ясно -25.0 -27.9 77 -32 -32 опасность
обморожения
1013.4 1012.5 -29.9 114
00 19.02 ЮЗ 1-2
{4}
50 км ясно -22.9 -25.7 78 -26 -24 1014.9 1014.0
03 19.02 СЗ 1-3
{4}
50 км ясно -19.8 -22.4 80 -23 -18 1015.9 1015.1
06 19.02 СЗ 3-4
{4}
50 км ясно -18.7 -21.1 81 -26 -25 1016.7 1015.9
09 19.02 З 2-2
{4}
20 км ясно -22.9 -25.5 79 -29 -29 1017.6 1016.7 -17.7
12 19.02 ЮВ 2-3
{3}
20 км ясно -26.5 -29.4 76 -33 -33 опасность
обморожения
1018.0 1017.1
15 19.02 ЮВ 3-2
{4}
20 км ясно -29.2 -32.5 73 -39 -39 опасность
обморожения
1018.1 1017.2
18 19.02 ЮВ 3-4
{4}
20 км ясно -30.2 -33.8 71 1017.9
21 19.02 ЮВ 2-3
{4}
20 км ясно -30.5 -34.1 71 -38 -38 опасность
обморожения
1017.6 1016.7 -30.5 114
00 20.02 ЮВ 2-3
{4}
50 км 1/0
[Ci fib]
-25.1 -28.0 77 -32 -29 опасность
обморожения
1017.5 1016.6 -30.6
03 20.02 ЮВ 2-3
{4}
50 км 9/0
[Ci fib]
-14.2 -17.0 79 -19 -16 1016.1 1015.3
06 20.02 ЮВ 3-4
{4}
50 км 9/0
[Ac As]
-10.6 -16.4 62 -16 -16 1014.5 1013.7
09 20.02 ЮВ 4-5
{6}
20 км 9/0
[Ac As]
-12.8 -16.7 73 -20 -20 1014.3 1013.5 -10.4
12 20.02 ЮВ 4-5
{6}
20 км 9/0
[Ac As]
-12.7 -15.8 78 -20 -20 1013.8 1013.0
15 20.02 ЮВ 3-3
{5}
50 км 9/0
[Ac As]
-13.4 -14.6 91 -20 -20 1012.9 1012.1
18 20.02 Ю 1
{3}
20 км 3/0
[Ac lent]
-16.1 -17.7 87 -19 -19 1012.3 1011.4
21 20.02 З 2-2
{3}
500 м переохл. туман ясно -20.3 -22.5 83 -26 -26 1012.0 1011.1 -20.3 114
00 21.02 СЗ 2-2
{3}
500 м туман ясно -18.0 -20.0 84 -23 -21 1012.4 1011.5 -20.6
03 21.02 СЗ 2-3
{5}
4000 м дымка {туман} 9/9 300 м
[St]
-15.4 -17.2 86 -20 -20 1012.4 1011.5
06 21.02 СЗ 3-4
{4}
4000 м слаб. снег {туман} 10/10 300 м
[Frnb Ns]
-15.2 -17.0 86 -22 -22 1012.8 1011.9
09 21.02 З 3-3
{4}
4000 м слаб. снег 10/10 300 м
[Frnb Ns]
-18.7 -20.8 83 -26 -26 1013.8 1013.0 -14.5 0.3
12 21.02 С 3-4
{4}
4000 м слаб. снег 10/10 300 м
[Frnb Ns]
-19.9 -22.1 83 -27 -27 1014.5 1013.6
15 21.02 С 1-3
{4}
20 км {снег} ясно -24.0 -26.7 78 -27 -27 1015.0 1014.1
18 21.02 СЗ 3-4
{4}
20 км {снег} ясно -24.2 -26.8 79 -33 -33 опасность
обморожения
1014.9 1014.0
21 21.02 штиль 0
{4}
4000 м слаб. снег 10/10 300 м
[Frnb Ns]
-24.1 -26.8 78 -24 -24 1015.1 1014.2 -26.0 0.2 115
00 22.02 СЗ 1-1
{3}
20 км в посл. час снег 9/0
[Ac lent Cs]
-19.5 -21.5 84 -22 -20 1015.4 1014.6
03 22.02 СЗ 2-2
{3}
20 км 1/1 300 м
[Cb cap]
-18.4 -20.5 83 -24 -20 1015.2 1014.3
06 22.02 З 3-3
{4}
20 км 3/1 300 м
[Cb cap Ci fib]
-18.6 -21.1 81 -26 -25 1014.8 1014.0
09 22.02 З 4-5
{5}
20 км 9/0
[Cs]
-24.1 -26.8 78 -34 -34 опасность
обморожения
1014.8 1014.0 -17.6 0.0
12 22.02 З 4-5
{5}
4000 м слаб. снег 10/10 300 м
[Frnb Ns]
-20.8 -22.9 83 -30 -30 1014.0 1013.1
15 22.02 З 2-4
{5}
20 км {снег} ясно -22.9 -25.5 79 -29 -29 1012.7 1011.8
18 22.02 Ю 1-1
{4}
20 км {снег} ясно -27.4 -30.5 75 -31 -31 опасность
обморожения
1011.1 1010.2
21 22.02 З 3-4
{4}
20 км ясно -27.3 -30.4 75 -36 -36 опасность
обморожения
1010.6 1009.7 -28.3 0.1 115
00 23.02 З 2-2
{4}
50 км ясно -23.9 -27.0 75 -30 -28 1010.1 1009.2
03 23.02 СЗ 4-6
{7}
50 км ясно -16.8 -18.7 85 -25 -22 1009.2 1008.3
06 23.02 СЗ 3-4
{7}
20 км 9/0
[Ac As]
-15.6 -17.9 82 -22 -22 1008.8 1007.9
09 23.02 З 1-1
{4}
20 км 9/0
[Ac As]
-17.3 -19.2 85 -20 -20 1008.5 1007.6 -14.6
12 23.02 Ю 3-3
{4}
20 км 4/0
[Ac lent]
-19.8 -21.9 83 -27 -27 1007.8 1007.0
15 23.02 ЮВ 2-3
{4}
20 км 3/0
[Ac lent]
-21.1 -23.5 81 -27 -27 1006.6 1005.8
18 23.02 Ю 2-2
{3}
20 км ясно -25.3 -28.2 77 -32 -32 опасность
обморожения
1005.8 1004.9
21 23.02 штиль 0-3
{4}
20 км ясно -28.7 -32.0 73 -29 -29 1005.8 1004.9 -28.7 115

 

Местоположение метеостанции Москальво (Сахалинская область, Россия): широта 53.57 долгота 142.50 высота над уровнем моря 6 м.

В архиве по умолчанию представлена погода в Москальво за последнюю неделю. Архивные данные за месяц целиком и за предыдущие месяцы, начиная с января 2011 года, Вы можете получить, выбрав интересующий диапазон дат из раскрывающегося списка и нажав кнопку "Ввод!".


*Определитесь, кто Вы:
робот инопланетянин человек

Внимание! Время в таблицах - всемирное. Для получения местного времени необходимо прибавить поправку, которая равна 11 ч.

Смотрите также архив погоды в соседних городах и на ближайших метеорологических станциях:

Погода в Оха (Сахалинская область, Россия) (28 км)
Погода в Одопту (Сахалинская область, Россия) (50 км)
Погода в Байдукове (Хабаровский край, Россия) (79 км)
Погода в Ныврово (Сахалинская область, Россия) (85 км)
Погода в Николаевск-на-Амуре (Хабаровский край, Россия) (128 км)
Погода в Джаоре (Хабаровский край, Россия) (132 км)
Погода в Вале (Сахалинская область, Россия) (142 км)
Погода в Литке (Хабаровский край, Россия) (151 км)
Погода в Погибях (Сахалинская область, Россия) (162 км)
Погода в Ногликах (Сахалинская область, Россия) (188 км)

Пояснения к столбцам:

Ветер - указаны скорость ветра в м/с - средняя за 10 мин, порывы в срок и между сроками (в фигурных скобках) и направление, откуда дует ветер: С - северный, СВ - северо-восточный, В - восточный, ЮВ - юго-восточный, Ю - южный, ЮЗ - юго-западный, З - западный, СЗ - северо-западный.
Видимость - горизонтальная дальность видимости в метрах или километрах. При видимости от 1 до 10 км при отсутствии осадков обычно наблюдается дымка, при ухудшении видимости до 1 км и менее - туман. В сухую погоду видимость может ухудшаться дымом, пылью или мглою.
Явления - указаны атмосферные явления, наблюдавшиеся в срок или в последний час перед сроком; фигурными скобками обозначены явления, наблюдавшиеся между сроками (за 1-3 часа до срока); квадратными скобками обозначены град или гололедные отложения с указанием их диаметра в мм.
Облачность - указаны через наклонную черту общая и нижняя облачность в баллах и высота нижней границы облаков в метрах; квадратными скобками обозначены формы облаков: Ci - перистые, Cs - перисто-слоистые, Cc - перисто-кучевые, Ac - высококучевые, As - высокослоистые, Sc - слоисто-кучевые, Ns - слоисто-дождевые, Cu - кучевые, Cb - кучево-дождевые. Подробнее классификацию облаков см. в Атласе облаков (PDF).
T - Температура воздуха - температура, измеренная на высоте 2 м над землей.
Td - Температура точки росы - температура, при понижении до которой содержащийся в воздухе водяной пар достигнет насыщения.
f - Относительная влажность воздуха - влажноcть воздуха, измеренная на высоте 2 м над землей.
Te - Эффективная температура - температура, которую ощущает одетый по сезону человек в тени. Характеристика душности погоды. При расчете учитывается влияние влажности воздуха и скорости ветра на теплоощущения человека.
Tes - Эффективная температура на солнце - температура, которую ощущает человек, с поправкой на солнечный нагрев. Характеристика знойности погоды. Зависит от высоты солнца над горизонтом, облачности и скорости ветра. Ночью, в пасмурную погоду, а также при ветре 12 м/с и более поправка равна нулю.
P - Атмосферное давление - приведенное к уровню моря атмосферное давление.
Po - Атмосферное давление - измеренное на уровне метеостанции атмосферное давление.
Tmin - Минимальная температура - минимум температуры воздуха на высоте 2 м над землей.
Tmax - Максимальная температура - максимум температуры воздуха на высоте 2 м над землей.
R - Количество осадков - Количество выпавших осадков за период времени, мм. При наведении курсора мыши на число - период времени, за который выпало указанное количество осадков.
R24 - Количество осадков - Количество выпавших осадков за 24 часа, мм.
S - Снежный покров - Высота снежного покрова, см. При наведении курсора мыши на число - состояние снежного покрова и степень покрытия местности в баллах.